Location: Arpaise
(41.0333°N, 14.7333°E)
Time: 21:14:49
(UTC+00:00)

Cosmos 846 Rocket - Pass Details

Date: 18 January 2021
Orbit: 948 x 991 km, 82.9° (Epoch: 06 March)

Event Time Altitude Azimuth Distance (km) Brightness Sun altitude
Rises 04:15:00 0° 10° (N) 3,637 8.5 -23.7°
Reaches altitude 10° 04:19:02 10° 36° (NE) 2,681 8.1 -23.0°
Maximum altitude 04:21:58 14° 65° (ENE) 2,417 8.3 -22.4°
Drops below altitude 10° 04:24:54 10° 94° (E) 2,670 8.9 -21.9°
Sets 04:28:52 0° 120° (ESE) 3,610 9.7 -21.1°
